MWI034 FWKI-FLKK

Flight info

Callsign MWI034
Flight time 0h 57m
Altitude 36000
Route UTOLA1A UTOLA DCT IBNOP IBNOP1A
Aircraft B737/M-SABDE2E3FGHIRWXY/LB2

Departure

Time 2026-04-22 08:44
Airport Kamuzu International Airport (FWKI)

Arrival

Time 2026-04-22 09:41
Airport Kenneth Kaunda International Airport (FLKK)
Time Latitude Longitude Altitude Speed Heading
2026-04-22 08:28 -13.78159 33.77842 4029 ft 0 kts 130°
2026-04-22 08:41 -13.78192 33.77868 4030 ft 15 kts 161°
2026-04-22 08:41 -13.78319 33.77782 4030 ft 28 kts 218°
2026-04-22 08:42 -13.78326 33.77638 4029 ft 22 kts 313°
2026-04-22 08:42 -13.78226 33.77516 4029 ft 23 kts 310°
2026-04-22 08:42 -13.78117 33.77384 4029 ft 25 kts 310°
2026-04-22 08:42 -13.78002 33.77241 4029 ft 27 kts 309°
2026-04-22 08:43 -13.77880 33.77088 4029 ft 28 kts 309°
2026-04-22 08:43 -13.77843 33.76917 4030 ft 26 kts 230°
2026-04-22 08:43 -13.77969 33.76913 4030 ft 18 kts 128°
2026-04-22 08:43 -13.78105 33.77080 4029 ft 60 kts 129°
2026-04-22 08:44 -13.78529 33.77599 4030 ft 126 kts 130°
2026-04-22 08:44 -13.79185 33.78402 4195 ft 161 kts 129°
2026-04-22 08:44 -13.79912 33.79300 4841 ft 167 kts 129°
2026-04-22 08:44 -13.80817 33.80135 5328 ft 189 kts 154°
2026-04-22 08:45 -13.82211 33.80250 5565 ft 219 kts 195°
2026-04-22 08:45 -13.83453 33.79334 6128 ft 228 kts 236°
2026-04-22 08:45 -13.83870 33.77725 6474 ft 246 kts 275°
2026-04-22 08:45 -13.83638 33.76570 6880 ft 247 kts 287°
2026-04-22 08:46 -13.83092 33.74856 7224 ft 267 kts 288°
2026-04-22 08:46 -13.82662 33.73302 7156 ft 286 kts 283°
2026-04-22 08:46 -13.82228 33.71286 7446 ft 293 kts 282°
2026-04-22 08:46 -13.81897 33.69238 7417 ft 295 kts 271°
2026-04-22 08:47 -13.82304 33.67189 7490 ft 295 kts 243°
2026-04-22 08:47 -13.83598 33.65568 8221 ft 295 kts 215°
2026-04-22 08:47 -13.85443 33.64694 9136 ft 297 kts 191°
2026-04-22 08:47 -13.87484 33.64273 9972 ft 302 kts 201°
2026-04-22 08:48 -13.89192 33.63008 10776 ft 313 kts 230°
2026-04-22 08:48 -13.90281 33.61023 11462 ft 323 kts 250°
2026-04-22 08:48 -13.90957 33.58799 12353 ft 327 kts 254°
2026-04-22 08:48 -13.91541 33.56538 13284 ft 328 kts 256°
2026-04-22 08:49 -13.92116 33.54227 13964 ft 338 kts 256°
2026-04-22 08:49 -13.92700 33.51884 14730 ft 343 kts 255°
2026-04-22 08:49 -13.93310 33.49468 15555 ft 347 kts 255°
2026-04-22 08:49 -13.93917 33.47092 16376 ft 351 kts 255°
2026-04-22 08:50 -13.94552 33.44637 17165 ft 355 kts 255°
2026-04-22 08:50 -13.95195 33.42169 17915 ft 359 kts 255°
2026-04-22 08:50 -13.95850 33.39664 18662 ft 363 kts 255°
2026-04-22 08:50 -13.96514 33.37135 19387 ft 367 kts 255°
2026-04-22 08:51 -13.97190 33.34563 20103 ft 372 kts 255°
2026-04-22 08:51 -13.97870 33.31978 20810 ft 375 kts 255°
2026-04-22 08:51 -13.98547 33.29404 21480 ft 379 kts 255°
2026-04-22 08:51 -13.99240 33.26770 22138 ft 383 kts 255°
2026-04-22 08:52 -13.99943 33.24100 22776 ft 387 kts 255°
2026-04-22 08:52 -14.00649 33.21411 23394 ft 391 kts 255°
2026-04-22 08:52 -14.01365 33.18689 24002 ft 394 kts 255°
2026-04-22 08:52 -14.02081 33.15961 24597 ft 398 kts 255°
2026-04-22 08:53 -14.02805 33.13205 25172 ft 401 kts 255°
2026-04-22 08:53 -14.03542 33.10396 25733 ft 405 kts 255°
2026-04-22 08:53 -14.04280 33.07580 26264 ft 409 kts 255°
2026-04-22 08:53 -14.05013 33.04784 26765 ft 412 kts 255°
2026-04-22 08:54 -14.05766 33.01910 27261 ft 416 kts 255°
2026-04-22 08:54 -14.06523 32.99020 27771 ft 418 kts 255°
2026-04-22 08:54 -14.07281 32.96121 28287 ft 421 kts 255°
2026-04-22 08:54 -14.08047 32.93196 28764 ft 424 kts 255°
2026-04-22 08:55 -14.08816 32.90251 29196 ft 427 kts 255°
2026-04-22 08:55 -14.09594 32.87275 29637 ft 431 kts 255°
2026-04-22 08:55 -14.10360 32.84341 30079 ft 433 kts 255°
2026-04-22 08:55 -14.11153 32.81304 30515 ft 436 kts 255°
2026-04-22 08:56 -14.11943 32.78275 30903 ft 439 kts 255°
2026-04-22 08:56 -14.12736 32.75232 31254 ft 443 kts 255°
2026-04-22 08:56 -14.13268 32.73188 31482 ft 445 kts 255°
2026-04-22 08:56 -14.14070 32.70081 31874 ft 447 kts 255°
2026-04-22 08:57 -14.14867 32.66991 32226 ft 449 kts 255°
2026-04-22 08:57 -14.15936 32.62856 32760 ft 451 kts 255°
2026-04-22 08:57 -14.16473 32.60783 32985 ft 452 kts 255°
2026-04-22 08:57 -14.17554 32.56610 33374 ft 457 kts 255°
2026-04-22 08:58 -14.18111 32.54465 33555 ft 459 kts 255°
2026-04-22 08:58 -14.18941 32.51270 33830 ft 461 kts 255°
2026-04-22 08:58 -14.19767 32.48086 34343 ft 458 kts 255°
2026-04-22 08:58 -14.20589 32.44918 34810 ft 455 kts 255°
2026-04-22 08:59 -14.21404 32.41777 35276 ft 453 kts 255°
2026-04-22 08:59 -14.22215 32.38646 35687 ft 451 kts 255°
2026-04-22 08:59 -14.23010 32.35576 36031 ft 451 kts 255°
2026-04-22 08:59 -14.23823 32.32434 36197 ft 455 kts 255°
2026-04-22 09:00 -14.24644 32.29261 36186 ft 458 kts 255°
2026-04-22 09:00 -14.26276 32.22944 36178 ft 453 kts 255°
2026-04-22 09:01 -14.27891 32.16688 36198 ft 449 kts 255°
2026-04-22 09:01 -14.29486 32.10501 36191 ft 450 kts 255°
2026-04-22 09:02 -14.31101 32.04229 36196 ft 451 kts 255°
2026-04-22 09:02 -14.32713 31.97961 36190 ft 452 kts 255°
2026-04-22 09:03 -14.34325 31.91688 36191 ft 453 kts 255°
2026-04-22 09:03 -14.35932 31.85423 36193 ft 453 kts 255°
2026-04-22 09:04 -14.37544 31.79135 36187 ft 454 kts 255°
2026-04-22 09:04 -14.39159 31.72828 36190 ft 454 kts 255°
2026-04-22 09:05 -14.40769 31.66532 36190 ft 454 kts 255°
2026-04-22 09:05 -14.42370 31.60263 36188 ft 454 kts 255°
2026-04-22 09:06 -14.43972 31.53982 36188 ft 453 kts 255°
2026-04-22 09:06 -14.45577 31.47684 36189 ft 453 kts 255°
2026-04-22 09:07 -14.47177 31.41397 36193 ft 452 kts 256°
2026-04-22 09:07 -14.48776 31.35106 36190 ft 452 kts 256°
2026-04-22 09:08 -14.50361 31.28864 36190 ft 452 kts 256°
2026-04-22 09:08 -14.51952 31.22592 36188 ft 451 kts 256°
2026-04-22 09:09 -14.53539 31.16325 36190 ft 451 kts 256°
2026-04-22 09:09 -14.55126 31.10055 36192 ft 451 kts 256°
2026-04-22 09:10 -14.56709 31.03788 36191 ft 451 kts 256°
2026-04-22 09:10 -14.58289 30.97527 36189 ft 450 kts 256°
2026-04-22 09:11 -14.59867 30.91268 36191 ft 450 kts 256°
2026-04-22 09:11 -14.61430 30.85060 36189 ft 450 kts 256°
2026-04-22 09:12 -14.63002 30.78810 36190 ft 449 kts 256°
2026-04-22 09:12 -14.64574 30.72553 36188 ft 449 kts 256°
2026-04-22 09:13 -14.66140 30.66311 36191 ft 449 kts 256°
2026-04-22 09:13 -14.67707 30.60058 36186 ft 449 kts 256°
2026-04-22 09:14 -14.69262 30.53844 36193 ft 449 kts 256°
2026-04-22 09:14 -14.70829 30.47575 36189 ft 449 kts 256°
2026-04-22 09:15 -14.72388 30.41331 36193 ft 448 kts 256°
2026-04-22 09:15 -14.73934 30.35129 36188 ft 448 kts 256°
2026-04-22 09:16 -14.75485 30.28904 36184 ft 448 kts 256°
2026-04-22 09:16 -14.77037 30.22666 36190 ft 448 kts 256°
2026-04-22 09:17 -14.78590 30.16415 36194 ft 448 kts 256°
2026-04-22 09:17 -14.80128 30.10216 36181 ft 448 kts 256°
2026-04-22 09:18 -14.81677 30.03967 36190 ft 448 kts 256°
2026-04-22 09:18 -14.83221 29.97730 36189 ft 449 kts 256°
2026-04-22 09:19 -14.84767 29.91476 36190 ft 449 kts 256°
2026-04-22 09:19 -14.86311 29.85223 36186 ft 449 kts 256°
2026-04-22 09:20 -14.87847 29.78993 36187 ft 449 kts 256°
2026-04-22 09:20 -14.89392 29.72724 36196 ft 449 kts 256°
2026-04-22 09:20 -14.90149 29.69647 36146 ft 438 kts 256°
2026-04-22 09:21 -14.90900 29.66595 35526 ft 438 kts 256°
2026-04-22 09:21 -14.91653 29.63530 34930 ft 438 kts 256°
2026-04-22 09:21 -14.92400 29.60487 34491 ft 434 kts 256°
2026-04-22 09:21 -14.93138 29.57483 34072 ft 429 kts 256°
2026-04-22 09:22 -14.93867 29.54510 33602 ft 424 kts 256°
2026-04-22 09:22 -14.94580 29.51602 32962 ft 418 kts 256°
2026-04-22 09:22 -14.95296 29.48680 32138 ft 417 kts 256°
2026-04-22 09:22 -14.96005 29.45786 31404 ft 414 kts 256°
2026-04-22 09:23 -14.96710 29.42904 30749 ft 409 kts 256°
2026-04-22 09:23 -14.97404 29.40066 30058 ft 405 kts 256°
2026-04-22 09:23 -14.98089 29.37263 29379 ft 401 kts 256°
2026-04-22 09:23 -14.98770 29.34478 28699 ft 396 kts 256°
2026-04-22 09:24 -14.99440 29.31728 27993 ft 391 kts 256°
2026-04-22 09:24 -15.00068 29.29019 27344 ft 386 kts 257°
2026-04-22 09:24 -15.00671 29.26321 26675 ft 381 kts 257°
2026-04-22 09:24 -15.01246 29.23711 26016 ft 377 kts 257°
2026-04-22 09:25 -15.01831 29.21054 25324 ft 373 kts 257°
2026-04-22 09:25 -15.02405 29.18458 24649 ft 370 kts 257°
2026-04-22 09:25 -15.02976 29.15880 24055 ft 364 kts 257°
2026-04-22 09:25 -15.03537 29.13352 23576 ft 355 kts 257°
2026-04-22 09:26 -15.04079 29.10910 23132 ft 346 kts 257°
2026-04-22 09:26 -15.04623 29.08465 22707 ft 345 kts 257°
2026-04-22 09:26 -15.05148 29.06099 22282 ft 344 kts 257°
2026-04-22 09:26 -15.05695 29.03641 21836 ft 343 kts 257°
2026-04-22 09:27 -15.06223 29.01263 21406 ft 342 kts 257°
2026-04-22 09:27 -15.06757 28.98858 20965 ft 341 kts 257°
2026-04-22 09:27 -15.07288 28.96465 20533 ft 340 kts 257°
2026-04-22 09:27 -15.07816 28.94083 20090 ft 339 kts 257°
2026-04-22 09:28 -15.08345 28.91697 19656 ft 338 kts 257°
2026-04-22 09:28 -15.08870 28.89328 19221 ft 337 kts 257°
2026-04-22 09:28 -15.09385 28.87006 18790 ft 336 kts 257°
2026-04-22 09:28 -15.09909 28.84627 18350 ft 334 kts 257°
2026-04-22 09:29 -15.10416 28.82317 17918 ft 333 kts 257°
2026-04-22 09:29 -15.10932 28.79978 17481 ft 332 kts 257°
2026-04-22 09:29 -15.11440 28.77675 17051 ft 330 kts 257°
2026-04-22 09:29 -15.11954 28.75346 16616 ft 329 kts 257°
2026-04-22 09:30 -15.12462 28.73042 16177 ft 328 kts 257°
2026-04-22 09:30 -15.12972 28.70734 15740 ft 326 kts 257°
2026-04-22 09:30 -15.13470 28.68474 15318 ft 325 kts 257°
2026-04-22 09:30 -15.13972 28.66199 14878 ft 323 kts 257°
2026-04-22 09:31 -15.14471 28.63936 14445 ft 322 kts 257°
2026-04-22 09:31 -15.14967 28.61684 14015 ft 320 kts 257°
2026-04-22 09:31 -15.15461 28.59441 13591 ft 319 kts 257°
2026-04-22 09:31 -15.15953 28.57203 13145 ft 317 kts 257°
2026-04-22 09:32 -15.16442 28.54983 12714 ft 316 kts 257°
2026-04-22 09:32 -15.16930 28.52762 12277 ft 315 kts 257°
2026-04-22 09:32 -15.17415 28.50559 11847 ft 313 kts 257°
2026-04-22 09:32 -15.17894 28.48378 11421 ft 312 kts 257°
2026-04-22 09:33 -15.18374 28.46188 10978 ft 311 kts 257°
2026-04-22 09:33 -15.18853 28.44006 10505 ft 311 kts 257°
2026-04-22 09:33 -15.19331 28.41834 10279 ft 303 kts 257°
2026-04-22 09:33 -15.19791 28.39735 9975 ft 298 kts 257°
2026-04-22 09:34 -15.20249 28.37646 9590 ft 295 kts 257°
2026-04-22 09:34 -15.20700 28.35595 9202 ft 288 kts 257°
2026-04-22 09:34 -15.21139 28.33591 8833 ft 281 kts 257°
2026-04-22 09:35 -15.21980 28.29744 8181 ft 273 kts 257°
2026-04-22 09:35 -15.22417 28.27847 8025 ft 265 kts 250°
2026-04-22 09:35 -15.23368 28.26265 7898 ft 258 kts 220°
2026-04-22 09:35 -15.24872 28.25313 7817 ft 248 kts 196°
2026-04-22 09:36 -15.26477 28.24992 7728 ft 225 kts 183°
2026-04-22 09:36 -15.27971 28.24834 7617 ft 208 kts 181°
2026-04-22 09:36 -15.29357 28.24817 7458 ft 192 kts 162°
2026-04-22 09:36 -15.30363 28.25590 7139 ft 173 kts 112°
2026-04-22 09:37 -15.30792 28.26727 6926 ft 169 kts 111°
2026-04-22 09:37 -15.31223 28.27835 6700 ft 166 kts 104°
2026-04-22 09:37 -15.31486 28.28965 6524 ft 164 kts 102°
2026-04-22 09:37 -15.31707 28.30106 6307 ft 159 kts 98°
2026-04-22 09:38 -15.31851 28.31249 6081 ft 157 kts 95°
2026-04-22 09:38 -15.31959 28.32366 5923 ft 155 kts 95°
2026-04-22 09:38 -15.32056 28.33467 5672 ft 147 kts 94°
2026-04-22 09:38 -15.32144 28.34484 5500 ft 136 kts 95°
2026-04-22 09:39 -15.32228 28.35452 5305 ft 135 kts 95°
2026-04-22 09:39 -15.32311 28.36430 5126 ft 137 kts 95°
2026-04-22 09:39 -15.32400 28.37435 4941 ft 143 kts 95°
2026-04-22 09:39 -15.32487 28.38437 4737 ft 138 kts 95°
2026-04-22 09:40 -15.32567 28.39393 4573 ft 133 kts 94°
2026-04-22 09:40 -15.32633 28.40344 4316 ft 131 kts 93°
2026-04-22 09:40 -15.32726 28.41310 4226 ft 139 kts 95°
2026-04-22 09:40 -15.32819 28.42321 4032 ft 139 kts 95°
2026-04-22 09:41 -15.32911 28.43296 3832 ft 132 kts 94°
2026-04-22 09:41 -15.32985 28.44203 3773 ft 111 kts 96°
2026-04-22 09:41 -15.33036 28.44784 3772 ft 53 kts 94°
2026-04-22 09:41 -15.33056 28.45018 3774 ft 26 kts 94°
2026-04-22 09:42 -15.33060 28.45051 3774 ft 25 kts 98°
2026-04-22 09:42 -15.32991 28.45196 3775 ft 19 kts 355°
2026-04-22 09:42 -15.32886 28.45126 3778 ft 16 kts 303°
2026-04-22 09:42 -15.32865 28.45035 3773 ft 12 kts 278°
2026-04-22 09:43 -15.32859 28.44982 3776 ft 10 kts 271°
2026-04-22 09:43 -15.32857 28.44918 3773 ft 8 kts 275°
2026-04-22 09:43 -15.32853 28.44865 3778 ft 6 kts 275°
2026-04-22 09:43 -15.32848 28.44817 3780 ft 10 kts 276°
2026-04-22 09:44 -15.32837 28.44711 3777 ft 17 kts 282°
2026-04-22 09:44 -15.32764 28.44624 3775 ft 15 kts 323°
2026-04-22 09:44 -15.32684 28.44582 3773 ft 11 kts 358°
2026-04-22 09:44 -15.32629 28.44616 3777 ft 8 kts 66°
2026-04-22 09:45 -15.32630 28.44656 3773 ft 4 kts 97°
2026-04-22 09:45 -15.32633 28.44681 3783 ft 2 kts 97°
2026-04-22 09:45 -15.32634 28.44700 3777 ft 3 kts 92°
2026-04-22 09:45 -15.32642 28.44729 3773 ft 4 kts 130°
2026-04-22 09:46 -15.32662 28.44736 3773 ft 0 kts 168°